During “DRY WARM OFFSHORE WINDS” and “OFFSHORE FLOW,” WINDS ACTUALLY DOMINATED FROM THE WEST:

NWS Burbank Weather Records Aug. 25-Sept. 1, 2014

Weather Conditions for:
Burbank, Burbank-Glendale-Pasadena Airport, CA (KBUR)
Elev: 774 ft; Latitude: 34.19972; Longitude: -118.36472

Time Temp. Relative Humidity Wind Direction Wind Speed (mph)
(PDT) (f) (%)
29 Aug 12:53 am PDT 75 31 ESE 3
28 Aug 11:53 pm PDT 77 26 ESE 6
28 Aug 10:53 pm PDT 80 24 ESE 5
28 Aug 9:53 pm PDT 83 17 WSW 3
28 Aug 8:53 pm PDT 85 12 W 3
28 Aug 7:53 pm PDT 88 9 WSW 7
28 Aug 6:53 pm PDT 92 10 WSW 7
28 Aug 5:53 pm PDT 95 13 W 15
28 Aug 4:53 pm PDT 97 15 WSW 16 Gust 21
28 Aug 3:53 pm PDT 99 13 WSW 12 Gust 20
28 Aug 2:53 pm PDT 95 22 S 8
28 Aug 1:53 pm PDT 95 21 S 9
28 Aug 12:53 pm PDT 94 23 VRBL 3
28 Aug 11:53 am PDT 92 20 S 5
28 Aug 10:53 am PDT 88 24 CALM
28 Aug 9:53 am PDT 83 29 CALM
28 Aug 8:53 am PDT 79 34 CALM
28 Aug 7:53 am PDT 74 40 CALM
28 Aug 6:53 am PDT 69 49 CALM
28 Aug 5:53 am PDT 70 42 CALM
28 Aug 4:53 am PDT 71 44 CALM

http://www.wrh.noaa.gov/mesowest/getobext.php?wfo=lox&sid=KBUR&num=168&raw=0&dbn=m